(323916) = 2005 TV81 = 2009 PB9

Discovered at Kitt Peak on 2005-10-03 by Spacewatch.

Orbit

Orbit type: Main Belt

Note: WebGL enabled browser required.

epoch2024-03-31.0
epoch JD2460400.5
perihelion date2025-08-22.48922
perihelion JD2460909.98922
argument of perihelion (°)266.09233
ascending node (°)349.17612
inclination (°)5.57698
eccentricity0.1559083
perihelion distance (AU)2.2037209
Tisserand w.r.t. Jupiter3.4
ΔV w.r.t. Earth (km/sec)9.5
semimajor axis (AU)2.6107601
mean anomaly (°)240.96124
mean daily motion (°/day)0.23364330
aphelion distance (AU)3.018
period (years)4.22
P-vector [x]-0.25340367
P-vector [y]-0.84449943
P-vector [z]-0.47181277
Q-vector [x]0.96718846
Q-vector [y]-0.23038184
Q-vector [z]-0.10710132
absolute magnitude17.09
phase slope0.15
uncertainty0
referenceMPEC 2024-C46
observations used230
oppositions13
arc length (days)7705
first opposition used2002
last opposition used2024
residual rms (arc-secs)0.80
perturbers coarse indicatorM-v
perturbers precise indicator003Ek
first observation date used2002-12-31.0
last observation date used2024-02-04.0
computer nameMPCLINUX
JD of orbit computation2456966.768519
perihelion JD uncertainty (days)1.9105E-04
argument of perihelion uncertainty (°)5.8697E-05
ascending node uncertainty (°)3.1479E-05
inclination uncertainty (°)7.1526E-06
eccentricity uncertainty 2.6712E-08
perihelion distance uncertainty (AU)6.9109E-08
Minimum Orbit Intersection Distances (in AU)
for orbit epoch: 2460200.5, reference: E2024-C46
Mercury1.73851
Venus1.48371
Earth1.198
Mars0.69856
Jupiter2.06263
Saturn6.0738
Uranus15.7678
Neptune26.9166

Observations

235 total observations over interval: 2002 12 31.292390 – 2024 02 04.242438
These data are available for download (format description).

Date (UT) J2000 RA J2000 Dec Magn Location Ref
2002 12 31.292390 08 19 48.231 +26 32 04.32 21.61 V 645 – Apache Point-Sloan Digital Sky Survey MPS 312380
2002 12 31.295862 08 19 48.051 +26 32 05.05 22.52   645 – Apache Point-Sloan Digital Sky Survey MPS 312380
2005 10 03.22914 01 07 30.07 +11 27 15.9 20.9 V 691 – Steward Observatory, Kitt Peak-Spacewatch MPS 147682
2005 10 03.24652 01 07 29.10 +11 27 12.2 21.2 V 691 – Steward Observatory, Kitt Peak-Spacewatch MPS 147682
2005 10 03.26392 01 07 28.09 +11 27 08.5 21.2 V 691 – Steward Observatory, Kitt Peak-Spacewatch MPS 147682
2005 10 09.22024 01 01 54.55 +11 04 28.2 21.1 V 691 – Steward Observatory, Kitt Peak-Spacewatch MPS 147682
2005 10 09.23755 01 01 53.55 +11 04 24.4 21.7 V 691 – Steward Observatory, Kitt Peak-Spacewatch MPS 147682
2005 10 09.25827 01 01 52.33 +11 04 18.9 21.3 V 691 – Steward Observatory, Kitt Peak-Spacewatch MPS 147682
2005 10 13.20770 00 58 11.88 +10 48 13.1 20.6 V 691 – Steward Observatory, Kitt Peak-Spacewatch MPS 312380
2005 10 13.22503 00 58 10.91 +10 48 08.9 21.0 V 691 – Steward Observatory, Kitt Peak-Spacewatch MPS 312380
2005 10 13.24244 00 58 09.93 +10 48 04.8 20.9 V 691 – Steward Observatory, Kitt Peak-Spacewatch MPS 312380
2008 03 04.46181 13 39 01.84 -13 41 39.7 20.7 V 691 – Steward Observatory, Kitt Peak-Spacewatch MPS 312380
2008 03 04.47947 13 39 01.54 -13 41 42.4 20.2 V 691 – Steward Observatory, Kitt Peak-Spacewatch MPS 312380
2008 03 04.49713 13 39 01.30 -13 41 44.8 20.5 V 691 – Steward Observatory, Kitt Peak-Spacewatch MPS 312380
2009 08 15.38541 00 07 56.66 +00 34 10.1   291 – LPL/Spacewatch II MPS 291823
2009 08 15.39546 00 07 56.40 +00 34 08.4 21.0 V 691 – Steward Observatory, Kitt Peak-Spacewatch MPS 291823
2009 08 15.39556 00 07 56.42 +00 34 08.7   291 – LPL/Spacewatch II MPS 291823
2009 08 15.40586 00 07 56.12 +00 34 08.0   291 – LPL/Spacewatch II MPS 291823
2009 08 15.41305 00 07 55.84 +00 34 07.4 21.0 V 691 – Steward Observatory, Kitt Peak-Spacewatch MPS 291823
2009 08 15.43065 00 07 55.35 +00 34 07.3 21.1 V 691 – Steward Observatory, Kitt Peak-Spacewatch MPS 291823
2009 08 16.37385 00 07 28.49 +00 33 18.2 21.0 V 291 – LPL/Spacewatch II MPS 291823
2009 08 16.38403 00 07 28.16 +00 33 17.6 21.2 V 291 – LPL/Spacewatch II MPS 291823
2009 08 16.39424 00 07 27.85 +00 33 17.2 21.2 V 291 – LPL/Spacewatch II MPS 291823
2009 09 18.23580 23 41 44.08 -00 55 28.0 19.4 V G96 – Mt. Lemmon Survey MPS 312380
2009 09 18.24344 23 41 43.69 -00 55 30.6 20.1 V G96 – Mt. Lemmon Survey MPS 312380
2009 09 18.25125 23 41 43.26 -00 55 32.2 19.9 V G96 – Mt. Lemmon Survey MPS 312380
2009 09 18.25904 23 41 42.79 -00 55 33.8 20.1 V G96 – Mt. Lemmon Survey MPS 312380
2012 02 14.60427 11 51 09.875 +01 35 20.04 20.5 i F51 – Pan-STARRS 1, Haleakala MPS 411554
2012 02 14.61569 11 51 09.478 +01 35 20.93 20.6 i F51 – Pan-STARRS 1, Haleakala MPS 411554
2012 02 21.36175 11 46 59.94 +01 47 00.8 19.6 R 290 – Mt. Graham-VATT MPS 540328
2012 02 21.36623 11 46 59.75 +01 47 01.3 19.9 R 290 – Mt. Graham-VATT MPS 540328
2012 02 21.37072 11 46 59.53 +01 47 02.1 20.0 R 290 – Mt. Graham-VATT MPS 540328
2012 02 21.37521 11 46 59.36 +01 47 02.5 19.6 R 290 – Mt. Graham-VATT MPS 540328
2012 02 21.37970 11 46 59.15 +01 47 03.1 19.7 R 290 – Mt. Graham-VATT MPS 540328
2012 02 26.40437 11 43 13.830 +01 59 14.09 20.9 w F51 – Pan-STARRS 1, Haleakala MPS 414183
2012 02 26.41878 11 43 13.109 +01 59 16.24 20.7 w F51 – Pan-STARRS 1, Haleakala MPS 414183
2012 02 26.44759 11 43 11.671 +01 59 20.84 20.7 w F51 – Pan-STARRS 1, Haleakala MPS 414183
2012 02 26.51163 11 43 08.451 +01 59 31.03 21.2 g F51 – Pan-STARRS 1, Haleakala MPS 414183
2012 02 26.52294 11 43 07.889 +01 59 32.96 21.2 g F51 – Pan-STARRS 1, Haleakala MPS 414183
2012 02 26.53506 11 43 07.292 +01 59 35.04 20.6 r F51 – Pan-STARRS 1, Haleakala MPS 414183
2012 02 26.54554 11 43 06.766 +01 59 36.35 20.4 r F51 – Pan-STARRS 1, Haleakala MPS 414183
2012 03 13.22792 11 29 00.43 +02 49 54.4 19.5 R H15 – ISON-NM Observatory, Mayhill MPS 416132
2012 03 13.24163 11 28 59.57 +02 49 58.9 19.5 R H15 – ISON-NM Observatory, Mayhill MPS 416132
2012 03 13.24928 11 28 59.19 +02 49 59.9 20.0 V G96 – Mt. Lemmon Survey MPS 416132
2012 03 13.25518 11 28 58.82 +02 50 01.2 19.5 R H15 – ISON-NM Observatory, Mayhill MPS 416132
2012 03 13.25855 11 28 58.62 +02 50 01.9 19.4 V G96 – Mt. Lemmon Survey MPS 416132
2012 03 13.26794 11 28 58.04 +02 50 03.7 19.5 V G96 – Mt. Lemmon Survey MPS 416132
2012 03 13.26905 11 28 57.95 +02 50 04.5 19.7 R H15 – ISON-NM Observatory, Mayhill MPS 416132
2012 03 13.27720 11 28 57.50 +02 50 05.8 19.9 V G96 – Mt. Lemmon Survey MPS 416132
2012 03 20.36350 11 22 12.526 +03 14 41.39 20.7 w F51 – Pan-STARRS 1, Haleakala MPS 417222
2012 03 20.37811 11 22 11.677 +03 14 44.46 20.8 w F51 – Pan-STARRS 1, Haleakala MPS 417222
2012 03 20.39276 11 22 10.825 +03 14 47.41 20.7 w F51 – Pan-STARRS 1, Haleakala MPS 417222
2012 03 20.40738 11 22 09.969 +03 14 50.31 20.7 w F51 – Pan-STARRS 1, Haleakala MPS 417222
2012 04 24.20179 11 00 28.36 +04 14 48.7 20.8 V G96 – Mt. Lemmon Survey MPS 422792
2012 04 24.21044 11 00 28.29 +04 14 48.3 20.5 V G96 – Mt. Lemmon Survey MPS 422792
2012 04 24.21913 11 00 28.18 +04 14 48.5 20.8 V G96 – Mt. Lemmon Survey MPS 422792
2012 04 24.22784 11 00 28.08 +04 14 48.6 21.1 V G96 – Mt. Lemmon Survey MPS 422792
2013 08 09.44023 22 20 29.646 -14 26 12.33 20.1 w F51 – Pan-STARRS 1, Haleakala MPS 473643
2013 08 09.45447 22 20 28.857 -14 26 14.72 20.1 w F51 – Pan-STARRS 1, Haleakala MPS 473643
2013 08 09.48296 22 20 27.275 -14 26 19.45 20.3 w F51 – Pan-STARRS 1, Haleakala MPS 473643
2013 08 27.37380 22 03 35.818 -15 12 33.39 19.8 r F51 – Pan-STARRS 1, Haleakala MPS 474845
2013 08 27.38426 22 03 35.201 -15 12 34.75 19.8 r F51 – Pan-STARRS 1, Haleakala MPS 474845
2013 08 27.39552 22 03 34.540 -15 12 36.13 19.8 i F51 – Pan-STARRS 1, Haleakala MPS 474845
2013 08 27.40674 22 03 33.870 -15 12 37.71 19.7 i F51 – Pan-STARRS 1, Haleakala MPS 474845
2013 08 31.40256 21 59 53.184 -15 20 24.01 20.2 w F51 – Pan-STARRS 1, Haleakala MPS 476079
2013 08 31.41707 21 59 52.365 -15 20 25.54 20.1 w F51 – Pan-STARRS 1, Haleakala MPS 476079
2013 09 14.17155 21 49 05.63 -15 34 24.6 20.1 V G96 – Mt. Lemmon Survey MPS 477612
2013 09 14.18054 21 49 05.31 -15 34 25.3 19.8 V G96 – Mt. Lemmon Survey MPS 477612
2013 09 14.18958 21 49 04.92 -15 34 24.7 20.9 V G96 – Mt. Lemmon Survey MPS 477612
2013 09 14.19861 21 49 04.60 -15 34 24.5 21.1 V G96 – Mt. Lemmon Survey MPS 477612
2013 09 24.05714 21 44 00.12 -15 30 24.8 19.2 J W91 – VHS-VISTA, Cerro Paranal MPS 678643
2013 09 24.05971 21 44 00.06 -15 30 24.5 19.3 J W91 – VHS-VISTA, Cerro Paranal MPS 678643
2013 09 24.06197 21 44 00.01 -15 30 24.6 20.2 Y W91 – VHS-VISTA, Cerro Paranal MPS 678643
2013 09 24.06649 21 43 59.90 -15 30 24.2 19.9 Y W91 – VHS-VISTA, Cerro Paranal MPS 678643
2014 11 22.29042 04 05 39.83 +28 58 09.0 20.4 V G96 – Mt. Lemmon Survey MPS 549460
2014 11 22.29650 04 05 39.34 +28 58 08.5 20.8 V G96 – Mt. Lemmon Survey MPS 549460
2014 11 22.30260 04 05 39.01 +28 58 07.2 19.9 V G96 – Mt. Lemmon Survey MPS 549460
2014 11 22.30868 04 05 38.56 +28 58 07.9 21.2 V G96 – Mt. Lemmon Survey MPS 549460
2014 11 27.34390 04 00 19.547 +28 46 30.45 21.2 w F51 – Pan-STARRS 1, Haleakala MPS 551361
2014 11 27.35779 04 00 18.647 +28 46 28.32 21.1 w F51 – Pan-STARRS 1, Haleakala MPS 551361
2014 11 27.37163 04 00 17.752 +28 46 26.28 21.1 w F51 – Pan-STARRS 1, Haleakala MPS 551361
2014 11 27.38549 04 00 16.855 +28 46 24.08 21.2 w F51 – Pan-STARRS 1, Haleakala MPS 551361
2014 12 01.31335 03 56 11.272 +28 35 38.63 20.8 i F51 – Pan-STARRS 1, Haleakala MPS 551361
2014 12 01.33725 03 56 09.782 +28 35 34.55 20.7 i F51 – Pan-STARRS 1, Haleakala MPS 551361
2014 12 01.34923 03 56 09.022 +28 35 32.34 20.6 i F51 – Pan-STARRS 1, Haleakala MPS 551361
2014 12 20.39142 03 39 06.093 +27 30 52.12 21.5 w F51 – Pan-STARRS 1, Haleakala MPS 559933
2014 12 20.40356 03 39 05.539 +27 30 49.45 21.7 w F51 – Pan-STARRS 1, Haleakala MPS 559933
2014 12 20.41566 03 39 05.021 +27 30 46.99 21.5 w F51 – Pan-STARRS 1, Haleakala MPS 559933
2014 12 20.42779 03 39 04.484 +27 30 44.31 21.5 w F51 – Pan-STARRS 1, Haleakala MPS 559933
2016 01 09.50098 10 29 30.559 +13 41 45.90 21.7 w F51 – Pan-STARRS 1, Haleakala MPS 671478
